TIANMU-1 07

Last updated on Sun Dec 21 2025 00:02:26 GMT+0000 (Coordinated Universal Time)

1 57399U 23101A 25354.58406890 .00004660 00000+0 17230-3 0 9990 2 57399 97.2866 44.2611 0005291 61.5583 298.6190 15.28174409134358
UTC large
Height (km)
Speed (km/s)
/
Latitude / Longitude
Inclination (degrees)
Orbital Period (minutes)
Azimuth
Elevation
Range (km)
Doppler Factor

Next 0 passes for location: London (51.5072 / 0.1276)

Sorry there are no passes over London.